Tiempo cada hora Dabkow

Hoy, 4 Agosto, Miércoles

Tiempo Temperatura Precipitaciones Viento Presión Humedad
00:00 +15°C° 0.2 mm 2 mps 743 mmHg 87%
01:00 +15°C° 0.2 mm 2 mps 742 mmHg 88%
02:00 +15°C° 0 mm 2 mps 742 mmHg 89%
03:00 +15°C° 0.1 mm 2 mps 742 mmHg 90%
04:00 +14°C° 0.1 mm 2 mps 742 mmHg 91%
05:00 +14°C° 0.1 mm 2 mps 742 mmHg 92%
06:00 +16°C° 0 mm 2 mps 742 mmHg 87%
07:00 +17°C° 0 mm 2 mps 742 mmHg 82%
08:00 +19°C° 0 mm 2 mps 742 mmHg 77%
09:00 +20°C° 0 mm 2 mps 742 mmHg 68%
10:00 +23°C° 0 mm 2 mps 742 mmHg 60%
11:00 +25°C° 0 mm 2 mps 742 mmHg 51%
12:00 +25°C° 0.1 mm 2 mps 742 mmHg 52%
13:00 +25°C° 0.1 mm 2 mps 742 mmHg 54%
14:00 +25°C° 0.1 mm 3 mps 741 mmHg 55%
15:00 +25°C° 0.2 mm 2 mps 741 mmHg 57%
16:00 +25°C° 0.2 mm 2 mps 741 mmHg 59%
17:00 +25°C° 0.2 mm 2 mps 741 mmHg 61%
18:00 +23°C° 0.5 mm 2 mps 741 mmHg 70%
19:00 +21°C° 0.5 mm 1 mps 741 mmHg 79%
20:00 +20°C° 0.5 mm 1 mps 741 mmHg 89%
21:00 +19°C° 0.2 mm 1 mps 741 mmHg 91%
22:00 +18°C° 0.2 mm 1 mps 741 mmHg 93%
23:00 +17°C° 0.2 mm 2 mps 741 mmHg 95%

Mañana, 5 Agosto, Jueves

Tiempo Temperatura Precipitaciones Viento Presión Humedad
00:00 +16°C° 0 mm 2 mps 741 mmHg 95%
01:00 +16°C° 0 mm 2 mps 741 mmHg 95%
02:00 +16°C° 0 mm 2 mps 741 mmHg 96%
03:00 +16°C° 0 mm 1 mps 740 mmHg 96%
04:00 +16°C° 0 mm 1 mps 740 mmHg 96%
05:00 +15°C° 0 mm 1 mps 740 mmHg 96%
06:00 +16°C° 0.1 mm 1 mps 740 mmHg 95%
07:00 +16°C° 0.1 mm 1 mps 740 mmHg 94%
08:00 +17°C° 0.1 mm 2 mps 739 mmHg 94%
09:00 +18°C° 0 mm 2 mps 739 mmHg 90%
10:00 +18°C° 0 mm 2 mps 739 mmHg 87%
11:00 +19°C° 0 mm 3 mps 739 mmHg 84%
12:00 +20°C° 0 mm 2 mps 739 mmHg 79%
13:00 +21°C° 0 mm 2 mps 738 mmHg 74%
14:00 +23°C° 0 mm 2 mps 738 mmHg 70%
15:00 +22°C° 0.1 mm 3 mps 738 mmHg 72%
16:00 +22°C° 0.1 mm 3 mps 737 mmHg 75%
17:00 +21°C° 0.1 mm 3 mps 737 mmHg 77%
18:00 +20°C° 0.8 mm 4 mps 736 mmHg 83%
19:00 +20°C° 0.8 mm 4 mps 735 mmHg 88%
20:00 +19°C° 0.8 mm 5 mps 735 mmHg 94%
21:00 +17°C° 1.3 mm 5 mps 734 mmHg 94%
22:00 +17°C° 1.3 mm 5 mps 734 mmHg 95%
23:00 +17°C° 1.3 mm 5 mps 733 mmHg 95%

Pasado mañana, 6 Agosto, Viernes

Tiempo Temperatura Precipitaciones Viento Presión Humedad
00:00 +17°C° 0.7 mm 5 mps 733 mmHg 95%
01:00 +18°C° 0.7 mm 4 mps 732 mmHg 95%
02:00 +18°C° 0.7 mm 4 mps 732 mmHg 94%
03:00 +17°C° 0.1 mm 5 mps 732 mmHg 95%
04:00 +17°C° 0.1 mm 5 mps 732 mmHg 95%
05:00 +16°C° 0.1 mm 6 mps 732 mmHg 96%
06:00 +16°C° 0.1 mm 6 mps 732 mmHg 95%
07:00 +16°C° 0.1 mm 6 mps 732 mmHg 95%
08:00 +16°C° 0.1 mm 6 mps 733 mmHg 95%
09:00 +17°C° 0 mm 6 mps 733 mmHg 92%
10:00 +17°C° 0 mm 6 mps 734 mmHg 89%
11:00 +19°C° 0 mm 6 mps 734 mmHg 86%
12:00 +19°C° 0 mm 6 mps 735 mmHg 84%
13:00 +19°C° 0 mm 5 mps 735 mmHg 82%
14:00 +20°C° 0 mm 5 mps 735 mmHg 80%
15:00 +19°C° 0.1 mm 5 mps 735 mmHg 83%
16:00 +18°C° 0.1 mm 4 mps 736 mmHg 85%
17:00 +18°C° 0.1 mm 4 mps 736 mmHg 87%
18:00 +17°C° 0 mm 4 mps 736 mmHg 87%
19:00 +17°C° 0 mm 3 mps 737 mmHg 87%
20:00 +17°C° 0 mm 3 mps 737 mmHg 88%
21:00 +16°C° 0 mm 3 mps 737 mmHg 89%
22:00 +16°C° 0 mm 3 mps 738 mmHg 89%
23:00 +14°C° 0 mm 3 mps 738 mmHg 90%

7 Agosto, Sábado

Tiempo Temperatura Precipitaciones Viento Presión Humedad
00:00 +14°C° 0 mm 3 mps 738 mmHg 92%
01:00 +14°C° 0 mm 2 mps 739 mmHg 93%
02:00 +14°C° 0 mm 2 mps 739 mmHg 95%
03:00 +13°C° 0 mm 2 mps 739 mmHg 96%
04:00 +12°C° 0 mm 2 mps 739 mmHg 97%
05:00 +12°C° 0 mm 2 mps 740 mmHg 98%
06:00 +13°C° 0 mm 2 mps 740 mmHg 92%
07:00 +15°C° 0 mm 2 mps 740 mmHg 86%
08:00 +16°C° 0 mm 2 mps 740 mmHg 80%
09:00 +18°C° 0 mm 2 mps 741 mmHg 70%
10:00 +20°C° 0 mm 2 mps 741 mmHg 60%
11:00 +21°C° 0 mm 2 mps 741 mmHg 51%
12:00 +23°C° 0 mm 2 mps 741 mmHg 47%
13:00 +24°C° 0 mm 2 mps 741 mmHg 44%
14:00 +25°C° 0 mm 2 mps 741 mmHg 41%
15:00 +26°C° 0 mm 1 mps 741 mmHg 41%
16:00 +26°C° 0 mm 1 mps 741 mmHg 42%
17:00 +26°C° 0 mm 1 mps 741 mmHg 42%
18:00 +24°C° 0 mm 1 mps 741 mmHg 48%
19:00 +21°C° 0 mm 2 mps 741 mmHg 54%
20:00 +20°C° 0 mm 2 mps 741 mmHg 60%
21:00 +19°C° 0 mm 2 mps 741 mmHg 62%
22:00 +18°C° 0 mm 3 mps 741 mmHg 65%
23:00 +17°C° 0 mm 3 mps 741 mmHg 67%

8 Agosto, Domingo

Tiempo Temperatura Precipitaciones Viento Presión Humedad
00:00 +16°C° 0 mm 3 mps 741 mmHg 69%
01:00 +16°C° 0 mm 3 mps 741 mmHg 71%
02:00 +16°C° 0 mm 3 mps 741 mmHg 74%
03:00 +16°C° 0 mm 3 mps 741 mmHg 75%
04:00 +16°C° 0 mm 3 mps 741 mmHg 76%
05:00 +16°C° 0 mm 3 mps 741 mmHg 77%
06:00 +17°C° 0 mm 4 mps 741 mmHg 72%
07:00 +19°C° 0 mm 4 mps 741 mmHg 68%
08:00 +20°C° 0 mm 5 mps 741 mmHg 64%
09:00 +23°C° 0 mm 5 mps 741 mmHg 58%
10:00 +26°C° 0 mm 4 mps 741 mmHg 52%
11:00 +28°C° 0 mm 4 mps 741 mmHg 47%
12:00 +28°C° 0 mm 4 mps 741 mmHg 49%
13:00 +28°C° 0 mm 3 mps 742 mmHg 52%
14:00 +27°C° 0 mm 2 mps 742 mmHg 54%
15:00 +27°C° 0 mm 3 mps 742 mmHg 55%
16:00 +27°C° 0 mm 4 mps 742 mmHg 56%
17:00 +27°C° 0 mm 5 mps 743 mmHg 57%
18:00 +25°C° 0 mm 4 mps 743 mmHg 63%
19:00 +22°C° 0 mm 3 mps 744 mmHg 70%
20:00 +20°C° 0 mm 2 mps 744 mmHg 76%
21:00 +20°C° 0 mm 2 mps 744 mmHg 80%
22:00 +19°C° 0 mm 2 mps 745 mmHg 83%
23:00 +19°C° 0 mm 1 mps 745 mmHg 87%

9 Agosto, Lunes

Tiempo Temperatura Precipitaciones Viento Presión Humedad
00:00 +19°C° 0 mm 1 mps 745 mmHg 86%
01:00 +19°C° 0 mm 1 mps 745 mmHg 86%
02:00 +19°C° 0 mm 1 mps 745 mmHg 85%
03:00 +18°C° 0 mm 1 mps 746 mmHg 86%
04:00 +18°C° 0 mm 1 mps 746 mmHg 87%
05:00 +15°C° 0 mm 0 mps 746 mmHg 88%
06:00 +17°C° 0 mm 0 mps 746 mmHg 82%
07:00 +18°C° 0 mm 0 mps 746 mmHg 76%
08:00 +19°C° 0 mm 0 mps 746 mmHg 70%
09:00 +23°C° 0 mm 1 mps 746 mmHg 63%
10:00 +25°C° 0 mm 1 mps 747 mmHg 56%
11:00 +27°C° 0 mm 1 mps 747 mmHg 48%
12:00 +27°C° 0 mm 1 mps 746 mmHg 45%
13:00 +28°C° 0 mm 1 mps 746 mmHg 42%
14:00 +29°C° 0 mm 1 mps 746 mmHg 39%
15:00 +29°C° 0 mm 1 mps 746 mmHg 39%
16:00 +29°C° 0 mm 2 mps 746 mmHg 39%
17:00 +29°C° 0 mm 2 mps 746 mmHg 39%
18:00 +27°C° 0 mm 2 mps 745 mmHg 48%
19:00 +25°C° 0 mm 2 mps 745 mmHg 56%
20:00 +23°C° 0 mm 2 mps 745 mmHg 64%
21:00 +21°C° 0 mm 2 mps 745 mmHg 67%
22:00 +20°C° 0 mm 2 mps 745 mmHg 70%
23:00 +19°C° 0 mm 2 mps 745 mmHg 73%
Mostrar más

Necesitamos Su Consentimiento

Meteoprog y nuestros Proveedores de Servicios pueden almacenar y acceder a sus datos personales como cookies, identificadores de dispositivo u otras tecnologías similares de su dispositivo y procesar dichos datos para personalizar contenido y anuncios, además de ofrecer funciones de redes sociales y analizar el tráfico.

  • Almacenar y/o acceder a información en su dispositivo

    Se puede almacenar o acceder a cookies, identificadores de dispositivo u otra información de su dispositivo para los fines anteriormente indicados.

  • Anuncios y contenido personalizados, medición de anuncios y contenido, percepciones del público, y desarrollo de productos

    Los anuncios y el contenido pueden personalizarse en base a su perfil. Se pueden añadir más datos para personalizar mejor los anuncios y contenidos. Se puede medir el rendimiento de los anuncios y contenidos. Se puede obtener la percepción sobre el público que ha visto los anuncios y contenidos. Dichos datos pueden usarse para desarrollar o mejorar la experiencia del usuario, sistemas y software.

Al hacer clic en ‘Estoy De Acuerdo’ usted permitirá el uso de las cookies, identificadores de dispositivo, balizas web u otras tecnologías similares indicadas. Su configuración puede cambiarse desde el navegador de su dispositivo.

Para ciertos fines, los intereses legítimos pueden ser considerados por encima del consentimiento. Puede leer más sobre ello en nuestra Política de Privacidad y Cookies.